Wheeler Observed Data For Previous 48 Hours

Caption
Day and Hour Reservoir Elevation (behind dam)* Tailwater Elevation (below dam)* Average Hourly Discharge*
8/14/2019 1 AM CDT 555.18 506.92 20,988
8/14/2019 2 AM CDT 555.24 506.87 19,090
8/14/2019 3 AM CDT 555.30 506.95 19,101
8/14/2019 4 AM CDT 555.35 506.99 19,151
8/14/2019 5 AM CDT 555.37 507.06 19,147
8/14/2019 6 AM CDT 555.36 507.01 19,151
8/14/2019 7 AM CDT 555.40 507.14 19,158
8/14/2019 8 AM CDT 555.42 507.20 19,140
8/14/2019 9 AM CDT 555.43 507.39 19,327
8/14/2019 10 AM CDT 555.45 507.41 19,005
8/14/2019 11 AM CDT 555.48 507.42 19,053
8/14/2019 12 PM CDT 555.49 507.41 19,180
8/14/2019 1 PM CDT 555.49 507.32 31,612
8/14/2019 2 PM CDT 555.51 507.42 31,909
8/14/2019 3 PM CDT 555.53 507.46 31,892
8/14/2019 4 PM CDT 555.52 507.40 31,869
8/14/2019 5 PM CDT 555.51 507.31 31,909
8/14/2019 6 PM CDT 555.51 507.26 34,732
8/14/2019 7 PM CDT 555.42 507.53 62,085
8/14/2019 8 PM CDT 555.40 507.67 64,111
8/14/2019 9 PM CDT 555.40 507.65 64,012
8/14/2019 10 PM CDT 555.30 507.62 64,143
8/14/2019 11 PM CDT 555.25 507.72 64,029
8/15/2019 12 AM CDT 555.26 507.75 63,840
8/15/2019 1 AM CDT 555.22 507.77 63,826
8/15/2019 2 AM CDT 555.16 507.80 63,768
8/15/2019 3 AM CDT 555.13 507.78 63,725
8/15/2019 4 AM CDT 555.23 507.55 33,015
8/15/2019 5 AM CDT 555.17 507.38 31,767
8/15/2019 6 AM CDT 555.10 507.25 31,758
8/15/2019 7 AM CDT 555.14 507.34 31,850
8/15/2019 8 AM CDT 555.12 507.18 31,849
8/15/2019 9 AM CDT 555.08 507.30 31,310
8/15/2019 10 AM CDT 555.10 507.35 28,343
8/15/2019 11 AM CDT 555.08 507.28 28,379
8/15/2019 12 PM CDT 555.08 507.17 28,392
8/15/2019 1 PM CDT 555.08 507.22 28,324
8/15/2019 2 PM CDT 555.09 507.19 28,383
8/15/2019 3 PM CDT 555.09 507.08 28,345
8/15/2019 4 PM CDT 555.07 507.10 28,373
8/15/2019 5 PM CDT 555.03 507.10 28,404
8/15/2019 6 PM CDT 555.06 507.06 28,423
8/15/2019 7 PM CDT 555.09 507.05 28,413
8/15/2019 8 PM CDT 555.15 506.93 28,415
8/15/2019 9 PM CDT 555.17 506.96 28,291
8/15/2019 10 PM CDT 555.24 506.85 19,275
8/15/2019 11 PM CDT 555.27 506.78 18,774
8/16/2019 12 AM CDT 555.29 506.79 18,680
8/16/2019 1 AM CDT 555.31 506.83 18,760
8/16/2019 2 AM CDT 555.31 506.77 18,883
8/16/2019 3 AM CDT 555.31 506.71 18,720
8/16/2019 4 AM CDT 555.32 506.73 18,803
8/16/2019 5 AM CDT 555.31 506.73 18,806
8/16/2019 6 AM CDT 555.32 506.81 18,835
8/16/2019 7 AM CDT 555.32 506.72 18,719
8/16/2019 8 AM CDT 555.33 506.70 18,726
8/16/2019 9 AM CDT 555.33 506.66 18,718
8/16/2019 10 AM CDT 555.30 506.68 18,735
8/16/2019 11 AM CDT 555.31 506.64 18,817
8/16/2019 12 PM CDT 555.32 506.64 18,777
8/16/2019 1 PM CDT 555.31 506.64 18,837
8/16/2019 2 PM CDT 555.29 506.61 18,940
8/16/2019 3 PM CDT 555.28 506.51 28,539
8/16/2019 4 PM CDT 555.29 506.46 28,557
8/16/2019 5 PM CDT 555.32 506.47 28,574

Elevations are in feet above sea level. Discharges are in cubic feet per second and are reported at the end of the hour.